| time (UTC) | temp C | wind direction | speed KPH | gust KPH | rain 1hr cm | rain 24hr cm | rain mn cm | humidity % | barometer mb |
| 20260505022500 | 12 | 7 | 0.0 | 0.0 | 0.00 | 0.00 | 0.00 | 50 | 922.7 |
| 20260505021958 | 13 | 8 | 0.0 | 3.2 | 0.00 | 0.00 | 0.00 | 50 | 922.5 |
| 20260505021454 | 13 | 310 | 3.2 | 3.2 | 0.00 | 0.00 | 0.00 | 49 | 922.5 |
| 20260505020949 | 13 | 288 | 0.0 | 8.0 | 0.00 | 0.00 | 0.00 | 49 | 922.8 |
| 20260505020445 | 13 | 355 | 0.0 | 8.0 | 0.00 | 0.00 | 0.00 | 48 | 922.4 |
| 20260505015942 | 14 | 350 | 0.0 | 0.0 | 0.00 | 0.00 | 0.00 | 47 | 922.3 |
| 20260505015439 | 13 | 317 | 0.0 | 8.0 | 0.00 | 0.00 | 0.00 | 47 | 922.5 |
| 20260505014937 | 13 | 359 | 0.0 | 4.8 | 0.00 | 0.00 | 0.00 | 47 | 922.3 |
| 20260505014433 | 14 | 334 | 0.0 | 3.2 | 0.00 | 0.00 | 0.00 | 47 | 922.4 |
| 20260505013930 | 14 | 283 | 4.8 | 9.7 | 0.00 | 0.00 | 0.00 | 47 | 922.7 |
| 20260505013427 | 14 | 256 | 8.0 | 9.7 | 0.00 | 0.00 | 0.00 | 46 | 922.5 |
| 20260505012925 | 14 | 271 | 9.7 | 12.9 | 0.00 | 0.00 | 0.00 | 46 | 922.1 |
| 20260505012423 | 15 | 272 | 14.5 | 17.7 | 0.00 | 0.00 | 0.00 | 45 | 922.5 |
| 20260505011919 | 15 | 194 | 8.0 | 11.3 | 0.00 | 0.00 | 0.00 | 45 | 922.5 |
| 20260505011416 | 15 | 263 | 11.3 | 16.1 | 0.00 | 0.00 | 0.00 | 45 | 922.7 |
| 20260505010912 | 15 | 207 | 8.0 | 20.9 | 0.00 | 0.00 | 0.00 | 45 | 923.0 |
| 20260505010408 | 15 | 224 | 14.5 | 22.5 | 0.00 | 0.00 | 0.00 | 44 | 923.0 |
| 20260505005904 | 15 | 240 | 14.5 | 22.5 | 0.00 | 0.00 | 0.00 | 43 | 923.2 |
| 20260505005401 | 16 | 210 | 11.3 | 32.2 | 0.00 | 0.00 | 0.00 | 42 | 923.2 |
| 20260505004859 | 16 | 275 | 9.7 | 29.0 | 0.00 | 0.00 | 0.00 | 41 | 923.1 |
| 20260505004355 | 16 | 246 | 9.7 | 25.7 | 0.00 | 0.00 | 0.00 | 41 | 923.1 |
| 20260505003852 | 16 | 209 | 12.9 | 25.7 | 0.00 | 0.00 | 0.00 | 39 | 922.9 |
| 20260505003349 | 16 | 260 | 16.1 | 29.0 | 0.00 | 0.00 | 0.00 | 39 | 923.0 |
| 20260505002845 | 16 | 241 | 11.3 | 33.8 | 0.00 | 0.00 | 0.00 | 40 | 923.0 |
| 20260505002342 | 17 | 247 | 22.5 | 32.2 | 0.00 | 0.00 | 0.00 | 38 | 922.8 |
| 20260505001841 | 17 | 261 | 11.3 | 32.2 | 0.00 | 0.00 | 0.00 | 38 | 922.7 |
| 20260505001337 | 17 | 223 | 9.7 | 29.0 | 0.00 | 0.00 | 0.00 | 36 | 922.7 |
| 20260505000835 | 18 | 256 | 17.7 | 33.8 | 0.00 | 0.00 | 0.00 | 36 | 922.5 |
| 20260505000332 | 19 | 264 | 8.0 | 16.1 | 0.00 | 0.00 | 0.00 | 29 | 922.7 |
| 20260504235829 | 18 | 297 | 8.0 | 20.9 | 0.00 | 0.00 | 0.00 | 30 | 922.5 |
| 20260504235326 | 18 | 263 | 12.9 | 24.1 | 0.00 | 0.00 | 0.00 | 30 | 922.4 |
| 20260504234822 | 18 | 316 | 14.5 | 17.7 | 0.00 | 0.00 | 0.00 | 28 | 922.7 |
| 20260504234320 | 18 | 136 | 9.7 | 17.7 | 0.00 | 0.00 | 0.00 | 28 | 922.7 |
| 20260504233816 | 19 | 217 | 6.4 | 16.1 | 0.00 | 0.00 | 0.00 | 28 | 922.5 |
| 20260504233312 | 19 | 265 | 8.0 | 17.7 | 0.00 | 0.00 | 0.00 | 28 | 922.5 |
| 20260504232809 | 18 | 257 | 11.3 | 16.1 | 0.00 | 0.00 | 0.00 | 27 | 922.4 |
| 20260504232306 | 19 | 129 | 0.0 | 8.0 | 0.00 | 0.00 | 0.00 | 27 | 922.5 |
| 20260504231803 | 20 | 0 | 1.6 | 14.5 | 0.00 | 0.00 | 0.00 | 27 | 922.7 |
| 20260504231259 | 20 | 299 | 1.6 | 9.7 | 0.00 | 0.00 | 0.00 | 27 | 922.9 |
| 20260504230755 | 20 | 294 | 3.2 | 17.7 | 0.00 | 0.00 | 0.00 | 26 | 922.8 |
| 20260504230254 | 20 | 289 | 3.2 | 12.9 | 0.00 | 0.00 | 0.00 | 27 | 922.5 |
| 20260504225752 | 20 | 311 | 0.0 | 1.6 | 0.00 | 0.00 | 0.00 | 25 | 922.7 |
| 20260504225248 | 18 | 317 | 0.0 | 16.1 | 0.00 | 0.00 | 0.00 | 27 | 922.7 |
| 20260504224745 | 18 | 352 | 0.0 | 4.8 | 0.00 | 0.00 | 0.00 | 26 | 922.8 |
| 20260504224243 | 18 | 51 | 0.0 | 14.5 | 0.00 | 0.00 | 0.00 | 27 | 922.9 |
| 20260504223739 | 18 | 226 | 11.3 | 16.1 | 0.00 | 0.00 | 0.00 | 27 | 922.9 |
| 20260504223235 | 18 | 265 | 17.7 | 20.9 | 0.00 | 0.00 | 0.00 | 28 | 922.8 |
| 20260504222732 | 20 | 309 | 11.3 | 17.7 | 0.00 | 0.00 | 0.00 | 27 | 922.8 |
| 20260504222228 | 20 | 203 | 11.3 | 17.7 | 0.00 | 0.00 | 0.00 | 27 | 923.0 |
| 20260504221726 | 20 | 129 | 3.2 | 17.7 | 0.00 | 0.00 | 0.00 | 26 | 922.9 |
| 20260504221223 | 19 | 356 | 9.7 | 12.9 | 0.00 | 0.00 | 0.00 | 26 | 923.0 |
| 20260504220719 | 19 | 358 | 11.3 | 22.5 | 0.00 | 0.00 | 0.00 | 26 | 923.0 |
| 20260504220217 | 20 | 294 | 12.9 | 22.5 | 0.00 | 0.00 | 0.00 | 27 | 923.2 |
| 20260504215714 | 18 | 269 | 4.8 | 22.5 | 0.00 | 0.00 | 0.00 | 26 | 923.2 |
| 20260504215211 | 19 | 315 | 4.8 | 12.9 | 0.00 | 0.00 | 0.00 | 26 | 923.1 |
| 20260504214706 | 19 | 315 | 8.0 | 20.9 | 0.00 | 0.00 | 0.00 | 27 | 923.5 |
| 20260504214203 | 18 | 341 | 1.6 | 17.7 | 0.00 | 0.00 | 0.00 | 29 | 923.1 |
| 20260504213700 | 18 | 318 | 4.8 | 16.1 | 0.00 | 0.00 | 0.00 | 28 | 923.1 |
| 20260504213156 | 18 | 282 | 8.0 | 17.7 | 0.00 | 0.00 | 0.00 | 31 | 923.1 |
| 20260504212653 | 19 | 206 | 19.3 | 25.7 | 0.00 | 0.00 | 0.00 | 30 | 923.5 |
| 20260504212150 | 18 | 265 | 12.9 | 22.5 | 0.00 | 0.00 | 0.00 | 29 | 923.7 |
| 20260504211647 | 18 | 290 | 14.5 | 29.0 | 0.00 | 0.00 | 0.00 | 28 | 923.7 |
| 20260504211143 | 18 | 281 | 20.9 | 48.3 | 0.00 | 0.00 | 0.00 | 29 | 923.7 |
| 20260504210641 | 20 | 295 | 16.1 | 25.7 | 0.00 | 0.00 | 0.00 | 27 | 923.5 |
| 20260504210137 | 20 | 217 | 8.0 | 14.5 | 0.00 | 0.00 | 0.00 | 27 | 923.6 |
| 20260504205635 | 18 | 288 | 1.6 | 11.3 | 0.00 | 0.00 | 0.00 | 27 | 923.7 |
| 20260504205132 | 18 | 323 | 14.5 | 17.7 | 0.00 | 0.00 | 0.00 | 27 | 923.5 |
| 20260504204631 | 18 | 351 | 9.7 | 22.5 | 0.00 | 0.00 | 0.00 | 27 | 923.7 |
| 20260504204129 | 18 | 327 | 3.2 | 17.7 | 0.00 | 0.00 | 0.00 | 28 | 923.7 |
| 20260504203628 | 18 | 326 | 8.0 | 22.5 | 0.00 | 0.00 | 0.00 | 28 | 923.9 |
| 20260504203125 | 18 | 303 | 11.3 | 24.1 | 0.00 | 0.00 | 0.00 | 27 | 923.8 |
| 20260504202625 | 19 | 30 | 11.3 | 14.5 | 0.00 | 0.00 | 0.00 | 25 | 924.0 |
| 20260504202122 | 18 | 61 | 1.6 | 9.7 | 0.00 | 0.00 | 0.00 | 27 | 924.0 |
| 20260504201619 | 17 | 255 | 4.8 | 9.7 | 0.00 | 0.00 | 0.00 | 29 | 924.3 |
| 20260504201117 | 17 | 4 | 3.2 | 16.1 | 0.00 | 0.00 | 0.00 | 29 | 923.9 |
| 20260504200614 | 17 | 358 | 3.2 | 12.9 | 0.00 | 0.00 | 0.00 | 29 | 924.1 |
| 20260504200110 | 17 | 327 | 9.7 | 16.1 | 0.00 | 0.00 | 0.00 | 30 | 924.0 |
| 20260504195606 | 17 | 294 | 11.3 | 22.5 | 0.00 | 0.00 | 0.00 | 30 | 923.9 |
| 20260504195103 | 17 | 345 | 11.3 | 24.1 | 0.00 | 0.00 | 0.00 | 29 | 923.9 |
| 20260504194600 | 18 | 338 | 16.1 | 32.2 | 0.00 | 0.00 | 0.00 | 29 | 923.9 |
| 20260504194055 | 18 | 342 | 9.7 | 11.3 | 0.00 | 0.00 | 0.00 | 26 | 924.1 |
| 20260504193552 | 18 | 268 | 1.6 | 4.8 | 0.00 | 0.00 | 0.00 | 25 | 924.1 |
| 20260504193050 | 18 | 39 | 0.0 | 0.0 | 0.00 | 0.00 | 0.00 | 26 | 924.4 |
| 20260504192548 | 18 | 34 | 8.0 | 12.9 | 0.00 | 0.00 | 0.00 | 27 | 924.4 |
| 20260504192046 | 18 | 32 | 0.0 | 8.0 | 0.00 | 0.00 | 0.00 | 28 | 924.4 |
| 20260504191544 | 18 | 67 | 11.3 | 16.1 | 0.00 | 0.00 | 0.00 | 27 | 924.7 |
| 20260504191040 | 18 | 84 | 4.8 | 17.7 | 0.00 | 0.00 | 0.00 | 28 | 924.6 |
| 20260504190536 | 18 | 73 | 6.4 | 17.7 | 0.00 | 0.00 | 0.00 | 33 | 924.7 |
| 20260504190032 | 17 | 34 | 19.3 | 25.7 | 0.00 | 0.00 | 0.00 | 33 | 924.7 |
| 20260504185530 | 17 | 22 | 11.3 | 20.9 | 0.00 | 0.00 | 0.00 | 35 | 924.7 |
| 20260504185026 | 17 | 42 | 8.0 | 22.5 | 0.00 | 0.00 | 0.00 | 35 | 924.8 |
| 20260504184521 | 16 | 56 | 11.3 | 27.4 | 0.00 | 0.00 | 0.00 | 38 | 924.7 |
| 20260504184017 | 15 | 42 | 20.9 | 25.7 | 0.00 | 0.00 | 0.00 | 35 | 924.7 |
| 20260504183514 | 15 | 34 | 19.3 | 27.4 | 0.00 | 0.00 | 0.00 | 36 | 924.6 |
| 20260504183013 | 15 | 40 | 8.0 | 24.1 | 0.00 | 0.00 | 0.00 | 35 | 924.7 |
| 20260504182509 | 15 | 33 | 14.5 | 24.1 | 0.00 | 0.00 | 0.00 | 33 | 924.7 |
| 20260504182006 | 15 | 6 | 11.3 | 27.4 | 0.00 | 0.00 | 0.00 | 33 | 924.6 |
| 20260504181503 | 17 | 1 | 14.5 | 22.5 | 0.00 | 0.00 | 0.00 | 31 | 924.6 |
| 20260504181002 | 17 | 324 | 6.4 | 12.9 | 0.00 | 0.00 | 0.00 | 29 | 924.5 |
| 20260504180500 | 18 | 349 | 14.5 | 17.7 | 0.00 | 0.00 | 0.00 | 28 | 924.4 |
| 20260504175958 | 18 | 177 | 0.0 | 9.7 | 0.00 | 0.00 | 0.00 | 28 | 924.5 |
| 20260504175455 | 19 | 194 | 4.8 | 17.7 | 0.00 | 0.00 | 0.00 | 28 | 924.6 |
| 20260504174952 | 19 | 83 | 1.6 | 12.9 | 0.00 | 0.00 | 0.00 | 28 | 924.6 |
| 20260504174450 | 20 | 153 | 12.9 | 22.5 | 0.00 | 0.00 | 0.00 | 28 | 924.7 |
| 20260504173947 | 20 | 145 | 1.6 | 12.9 | 0.00 | 0.00 | 0.00 | 29 | 924.9 |
| 20260504173438 | 19 | 219 | 8.0 | 16.1 | 0.00 | 0.00 | 0.00 | 30 | 925.2 |
| 20260504172936 | 19 | 299 | 4.8 | 11.3 | 0.00 | 0.00 | 0.00 | 29 | 925.3 |
| 20260504172432 | 18 | 248 | 9.7 | 11.3 | 0.00 | 0.00 | 0.00 | 30 | 925.1 |
| 20260504171929 | 18 | 223 | 8.0 | 17.7 | 0.00 | 0.00 | 0.00 | 32 | 925.4 |
| 20260504171426 | 18 | 277 | 3.2 | 11.3 | 0.00 | 0.00 | 0.00 | 30 | 925.1 |
| 20260504170923 | 18 | 272 | 8.0 | 11.3 | 0.00 | 0.00 | 0.00 | 31 | 925.1 |
| 20260504170419 | 18 | 233 | 0.0 | 1.6 | 0.00 | 0.00 | 0.00 | 30 | 924.9 |
| 20260504160338 | 15 | 356 | 1.6 | 12.9 | 0.00 | 0.00 | 0.00 | 35 | 925.4 |
| 20260504150803 | 13 | 115 | 3.2 | 8.0 | 0.00 | 0.00 | 0.00 | 38 | 926.0 |
| 20260504150259 | 13 | 89 | 1.6 | 8.0 | 0.00 | 0.00 | 0.00 | 38 | 925.9 |
| 20260504141229 | 8 | 106 | 4.8 | 4.8 | 0.00 | 0.00 | 0.00 | 54 | 926.3 |
| 20260504140725 | 7 | 89 | 3.2 | 3.2 | 0.00 | 0.00 | 0.00 | 55 | 926.2 |
| 20260504140220 | 6 | 94 | 3.2 | 4.8 | 0.00 | 0.00 | 0.00 | 58 | 926.3 |
| 20260504130650 | 3 | 113 | 4.8 | 8.0 | 0.00 | 0.00 | 0.00 | 66 | 925.9 |
| 20260504130146 | 2 | 98 | 4.8 | 4.8 | 0.00 | 0.00 | 0.00 | 67 | 925.7 |
| 20260504120110 | 1 | 61 | 0.0 | 1.6 | 0.00 | 0.00 | 0.00 | 71 | 925.4 |
| 20260504110537 | 2 | 119 | 0.0 | 4.8 | 0.00 | 0.00 | 0.00 | 69 | 925.4 |
| 20260504100459 | 2 | 105 | 4.8 | 8.0 | 0.00 | 0.00 | 0.00 | 67 | 925.4 |
| 20260504081852 | 5 | 148 | 4.8 | 8.0 | 0.00 | 0.00 | 0.00 | 57 | 926.1 |
| 20260504081349 | 5 | 166 | 8.0 | 11.3 | 0.00 | 0.00 | 0.00 | 58 | 926.2 |
| 20260504080844 | 5 | 123 | 6.4 | 11.3 | 0.00 | 0.00 | 0.00 | 58 | 926.3 |
| 20260504080342 | 5 | 131 | 6.4 | 8.0 | 0.00 | 0.00 | 0.00 | 59 | 926.3 |
| 20260504070309 | 6 | 114 | 4.8 | 8.0 | 0.00 | 0.00 | 0.00 | 57 | 926.5 |
| 20260504060230 | 6 | 146 | 8.0 | 11.3 | 0.00 | 0.00 | 0.00 | 57 | 926.8 |
| 20260504050657 | 6 | 124 | 4.8 | 8.0 | 0.00 | 0.00 | 0.00 | 53 | 926.8 |
| 20260504050154 | 7 | 127 | 6.4 | 8.0 | 0.00 | 0.00 | 0.00 | 51 | 927.0 |
| 20260504045652 | 7 | 124 | 8.0 | 9.7 | 0.00 | 0.00 | 0.00 | 51 | 926.7 |
| 20260504045151 | 7 | 124 | 6.4 | 11.3 | 0.00 | 0.00 | 0.00 | 50 | 926.9 |
| 20260504044649 | 7 | 132 | 8.0 | 12.9 | 0.00 | 0.00 | 0.00 | 49 | 926.9 |
| 20260504044146 | 7 | 133 | 8.0 | 11.3 | 0.00 | 0.00 | 0.00 | 49 | 927.0 |
| 20260504043643 | 7 | 138 | 9.7 | 11.3 | 0.00 | 0.00 | 0.00 | 47 | 927.0 |
| 20260504043140 | 7 | 128 | 9.7 | 12.9 | 0.00 | 0.00 | 0.00 | 47 | 927.1 |
| 20260504042638 | 8 | 138 | 4.8 | 4.8 | 0.00 | 0.00 | 0.00 | 46 | 927.2 |
| 20260504042134 | 8 | 125 | 3.2 | 4.8 | 0.00 | 0.00 | 0.00 | 46 | 927.1 |
| 20260504041630 | 8 | 125 | 3.2 | 8.0 | 0.00 | 0.00 | 0.00 | 44 | 926.8 |
| 20260504041126 | 8 | 132 | 0.0 | 0.0 | 0.00 | 0.00 | 0.00 | 44 | 926.9 |
| 20260504040624 | 8 | 118 | 0.0 | 0.0 | 0.00 | 0.00 | 0.00 | 43 | 926.7 |
| 20260504040120 | 9 | 137 | 0.0 | 0.0 | 0.00 | 0.00 | 0.00 | 43 | 926.8 |
| 20260504035617 | 9 | 100 | 0.0 | 0.0 | 0.00 | 0.00 | 0.00 | 43 | 926.8 |
| 20260504035114 | 9 | 108 | 0.0 | 0.0 | 0.00 | 0.00 | 0.00 | 44 | 926.9 |
| 20260504034612 | 10 | 103 | 0.0 | 0.0 | 0.00 | 0.00 | 0.00 | 44 | 926.8 |
| 20260504034108 | 10 | 123 | 0.0 | 0.0 | 0.00 | 0.00 | 0.00 | 43 | 926.9 |
| 20260504033606 | 10 | 74 | 0.0 | 0.0 | 0.00 | 0.00 | 0.00 | 41 | 926.8 |
| 20260504033103 | 11 | 74 | 0.0 | 0.0 | 0.00 | 0.00 | 0.00 | 39 | 926.7 |
| 20260504032600 | 11 | 76 | 0.0 | 0.0 | 0.00 | 0.00 | 0.00 | 38 | 926.5 |
| 20260504032057 | 11 | 70 | 0.0 | 0.0 | 0.00 | 0.00 | 0.00 | 35 | 926.7 |
| 20260504031554 | 12 | 82 | 0.0 | 0.0 | 0.00 | 0.00 | 0.00 | 34 | 926.7 |
| 20260504031050 | 12 | 83 | 0.0 | 0.0 | 0.00 | 0.00 | 0.00 | 33 | 926.5 |
| 20260504030548 | 12 | 104 | 0.0 | 0.0 | 0.00 | 0.00 | 0.00 | 32 | 926.3 |
| 20260504030043 | 11 | 80 | 0.0 | 0.0 | 0.00 | 0.00 | 0.00 | 35 | 926.3 |
| 20260504025541 | 12 | 100 | 0.0 | 0.0 | 0.00 | 0.00 | 0.00 | 34 | 926.4 |
| 20260504025037 | 13 | 88 | 4.8 | 8.0 | 0.00 | 0.00 | 0.00 | 34 | 926.3 |
| 20260504024535 | 13 | 43 | 0.0 | 0.0 | 0.00 | 0.00 | 0.00 | 33 | 926.4 |
| 20260504024031 | 13 | 41 | 0.0 | 0.0 | 0.00 | 0.00 | 0.00 | 31 | 926.4 |
| 20260504023528 | 14 | 11 | 0.0 | 0.0 | 0.00 | 0.00 | 0.00 | 31 | 926.4 |
| 20260504023024 | 15 | 20 | 0.0 | 0.0 | 0.00 | 0.00 | 0.00 | 30 | 926.1 |